Volver al catálogo

STARLINK-35852

ActivoComunicacionesVLEO
NORAD 66889·PAYLOAD·🇺🇸 United States

Lanzado Dec 4, 2025 desde Vandenberg Space Force Base

Loading…

Próximos Pases (próximas 24 horas)

TLE

ActualizadoSource: CelesTrak SupGP

Época: Sep 14, 2026, 23:13 UTC

1 66889C 25283M   26257.96784722  .00002344  00000+0  69221-4 0  2577
2 66889  53.1587 221.4294 0001420  91.2588 271.7107 15.34400246    17

Sigue STARLINK-35852 en tiempo real con AllMySat

Download on the App Store